LAN106 SCEL-SCSE

Flight info

Callsign LAN106
Flight time 0h 39m
Altitude 26000
Route DONTI UQ802 KUGAP
Aircraft A321/M-SDE1E2E3FGHIRWYZ/SB1

Departure

Time 2026-04-25 22:31
Airport Comodoro Arturo Merino Benítez International Airport (SCEL)

Arrival

Time 2026-04-25 23:10
Airport La Florida Airport (SCSE)
Time Latitude Longitude Altitude Speed Heading
2026-04-25 22:00 -33.39571 -70.79154 1565 ft 0 kts 177°
2026-04-25 22:22 -33.39553 -70.79155 1564 ft 4 kts 176°
2026-04-25 22:22 -33.39530 -70.79157 1564 ft 3 kts 176°
2026-04-25 22:22 -33.39507 -70.79163 1564 ft 4 kts 129°
2026-04-25 22:23 -33.39500 -70.79190 1564 ft 4 kts 86°
2026-04-25 22:23 -33.39501 -70.79205 1564 ft 0 kts 87°
2026-04-25 22:25 -33.39501 -70.79191 1564 ft 3 kts 87°
2026-04-25 22:25 -33.39499 -70.79138 1564 ft 10 kts 88°
2026-04-25 22:25 -33.39497 -70.79072 1564 ft 14 kts 88°
2026-04-25 22:26 -33.39475 -70.78894 1564 ft 15 kts 51°
2026-04-25 22:26 -33.39390 -70.78828 1564 ft 16 kts 30°
2026-04-25 22:26 -33.39287 -70.78796 1564 ft 14 kts 357°
2026-04-25 22:26 -33.39185 -70.78801 1564 ft 16 kts 357°
2026-04-25 22:27 -33.39073 -70.78807 1564 ft 16 kts 357°
2026-04-25 22:27 -33.38954 -70.78815 1564 ft 18 kts 358°
2026-04-25 22:27 -33.38824 -70.78821 1564 ft 19 kts 358°
2026-04-25 22:27 -33.38685 -70.78827 1564 ft 20 kts 359°
2026-04-25 22:28 -33.38540 -70.78835 1564 ft 23 kts 357°
2026-04-25 22:28 -33.38367 -70.78845 1564 ft 27 kts 357°
2026-04-25 22:28 -33.38161 -70.78855 1564 ft 32 kts 358°
2026-04-25 22:28 -33.37943 -70.78867 1565 ft 31 kts 357°
2026-04-25 22:29 -33.37739 -70.78878 1564 ft 25 kts 357°
2026-04-25 22:29 -33.37641 -70.78864 1564 ft 11 kts 40°
2026-04-25 22:29 -33.37623 -70.78758 1564 ft 18 kts 87°
2026-04-25 22:30 -33.37747 -70.78665 1565 ft 38 kts 177°
2026-04-25 22:30 -33.38244 -70.78637 1564 ft 101 kts 177°
2026-04-25 22:30 -33.38797 -70.78606 1565 ft 134 kts 177°
2026-04-25 22:30 -33.39850 -70.78552 1589 ft 169 kts 178°
2026-04-25 22:31 -33.41002 -70.78488 2199 ft 163 kts 177°
2026-04-25 22:31 -33.42524 -70.78397 2930 ft 165 kts 178°
2026-04-25 22:31 -33.43679 -70.78328 3390 ft 170 kts 177°
2026-04-25 22:31 -33.44943 -70.78254 3535 ft 193 kts 177°
2026-04-25 22:32 -33.46309 -70.78175 3946 ft 197 kts 176°
2026-04-25 22:32 -33.47654 -70.78357 4454 ft 201 kts 204°
2026-04-25 22:32 -33.48657 -70.79605 4611 ft 225 kts 246°
2026-04-25 22:32 -33.48849 -70.81558 4781 ft 252 kts 275°
2026-04-25 22:33 -33.48648 -70.83734 5163 ft 271 kts 275°
2026-04-25 22:33 -33.48438 -70.85998 5871 ft 276 kts 275°
2026-04-25 22:33 -33.48225 -70.88293 6630 ft 278 kts 275°
2026-04-25 22:33 -33.48009 -70.90607 7378 ft 280 kts 276°
2026-04-25 22:34 -33.47791 -70.92932 8134 ft 282 kts 276°
2026-04-25 22:34 -33.47498 -70.95260 8789 ft 285 kts 285°
2026-04-25 22:34 -33.46623 -70.97395 9350 ft 288 kts 307°
2026-04-25 22:34 -33.45133 -70.98983 10122 ft 291 kts 329°
2026-04-25 22:35 -33.43891 -70.99597 10578 ft 293 kts 345°
2026-04-25 22:35 -33.41082 -71.00093 10942 ft 320 kts 352°
2026-04-25 22:35 -33.39575 -71.00295 11026 ft 335 kts 352°
2026-04-25 22:35 -33.37187 -71.00591 11311 ft 350 kts 353°
2026-04-25 22:36 -33.33947 -71.00981 12091 ft 357 kts 352°
2026-04-25 22:36 -33.31457 -71.01289 12750 ft 360 kts 352°
2026-04-25 22:36 -33.28951 -71.01607 13425 ft 364 kts 352°
2026-04-25 22:36 -33.26426 -71.01935 14080 ft 367 kts 351°
2026-04-25 22:37 -33.24741 -71.02157 14459 ft 369 kts 351°
2026-04-25 22:37 -33.22176 -71.02499 15014 ft 373 kts 351°
2026-04-25 22:37 -33.19584 -71.02845 15578 ft 376 kts 351°
2026-04-25 22:37 -33.16965 -71.03192 16128 ft 380 kts 350°
2026-04-25 22:38 -33.14323 -71.03538 16699 ft 384 kts 350°
2026-04-25 22:38 -33.11653 -71.03887 17269 ft 387 kts 350°
2026-04-25 22:38 -33.08963 -71.04238 17819 ft 391 kts 349°
2026-04-25 22:38 -33.06241 -71.04595 18367 ft 395 kts 349°
2026-04-25 22:39 -33.03500 -71.04955 18826 ft 398 kts 349°
2026-04-25 22:39 -33.00734 -71.05320 19280 ft 401 kts 348°
2026-04-25 22:39 -32.97945 -71.05686 19723 ft 405 kts 348°
2026-04-25 22:39 -32.95136 -71.06051 20140 ft 408 kts 348°
2026-04-25 22:40 -32.92300 -71.06417 20567 ft 412 kts 348°
2026-04-25 22:40 -32.89440 -71.06790 20982 ft 415 kts 347°
2026-04-25 22:40 -32.86557 -71.07167 21425 ft 418 kts 347°
2026-04-25 22:40 -32.83649 -71.07546 21839 ft 422 kts 347°
2026-04-25 22:41 -32.80761 -71.07922 22242 ft 425 kts 347°
2026-04-25 22:41 -32.77809 -71.08309 22612 ft 428 kts 347°
2026-04-25 22:41 -32.74801 -71.08702 23009 ft 431 kts 347°
2026-04-25 22:41 -32.71843 -71.09086 23429 ft 435 kts 347°
2026-04-25 22:42 -32.68824 -71.09476 23798 ft 438 kts 346°
2026-04-25 22:42 -32.65782 -71.09870 24167 ft 441 kts 346°
2026-04-25 22:42 -32.62723 -71.10267 24572 ft 443 kts 346°
2026-04-25 22:42 -32.59653 -71.10666 24928 ft 445 kts 346°
2026-04-25 22:43 -32.56563 -71.11067 25317 ft 446 kts 346°
2026-04-25 22:43 -32.53470 -71.11470 25682 ft 448 kts 346°
2026-04-25 22:43 -32.50366 -71.11875 25990 ft 450 kts 346°
2026-04-25 22:43 -32.47243 -71.12282 26109 ft 451 kts 346°
2026-04-25 22:44 -32.44144 -71.12677 26140 ft 446 kts 346°
2026-04-25 22:44 -32.41069 -71.13067 26133 ft 444 kts 346°
2026-04-25 22:44 -32.37975 -71.13463 26136 ft 452 kts 346°
2026-04-25 22:44 -32.34813 -71.13878 26137 ft 463 kts 346°
2026-04-25 22:45 -32.31576 -71.14306 26136 ft 473 kts 346°
2026-04-25 22:45 -32.28277 -71.14739 26131 ft 480 kts 346°
2026-04-25 22:45 -32.24957 -71.15169 26135 ft 481 kts 346°
2026-04-25 22:45 -32.21625 -71.15592 26134 ft 481 kts 346°
2026-04-25 22:46 -32.18296 -71.16011 26129 ft 481 kts 346°
2026-04-25 22:46 -32.14973 -71.16432 26131 ft 480 kts 346°
2026-04-25 22:46 -32.11652 -71.16854 26132 ft 480 kts 346°
2026-04-25 22:46 -32.08333 -71.17276 26122 ft 480 kts 346°
2026-04-25 22:47 -32.05011 -71.17696 26125 ft 479 kts 346°
2026-04-25 22:47 -32.01695 -71.18119 26122 ft 479 kts 346°
2026-04-25 22:47 -31.98380 -71.18544 26122 ft 479 kts 346°
2026-04-25 22:47 -31.95111 -71.18964 26115 ft 478 kts 346°
2026-04-25 22:48 -31.91803 -71.19387 26103 ft 477 kts 346°
2026-04-25 22:48 -31.88496 -71.19811 26099 ft 477 kts 346°
2026-04-25 22:48 -31.85195 -71.20232 26092 ft 478 kts 346°
2026-04-25 22:48 -31.81885 -71.20656 26092 ft 478 kts 346°
2026-04-25 22:49 -31.78572 -71.21049 26088 ft 481 kts 349°
2026-04-25 22:49 -31.75197 -71.20985 26097 ft 488 kts 356°
2026-04-25 22:49 -31.71804 -71.20778 26092 ft 488 kts 356°
2026-04-25 22:49 -31.68420 -71.20564 26090 ft 488 kts 356°
2026-04-25 22:50 -31.65022 -71.20346 26090 ft 488 kts 356°
2026-04-25 22:50 -31.61630 -71.20130 26086 ft 488 kts 356°
2026-04-25 22:50 -31.58241 -71.19919 26085 ft 487 kts 356°
2026-04-25 22:50 -31.54854 -71.19716 26089 ft 487 kts 356°
2026-04-25 22:51 -31.51466 -71.19514 26094 ft 488 kts 356°
2026-04-25 22:51 -31.48072 -71.19312 26091 ft 488 kts 356°
2026-04-25 22:51 -31.44684 -71.19114 26090 ft 487 kts 356°
2026-04-25 22:51 -31.41298 -71.18913 26088 ft 487 kts 356°
2026-04-25 22:52 -31.37909 -71.18709 25955 ft 489 kts 356°
2026-04-25 22:52 -31.34520 -71.18506 25538 ft 488 kts 356°
2026-04-25 22:52 -31.31119 -71.18302 24929 ft 489 kts 356°
2026-04-25 22:52 -31.28871 -71.18163 24565 ft 488 kts 356°
2026-04-25 22:53 -31.24344 -71.17886 23808 ft 486 kts 356°
2026-04-25 22:53 -31.20976 -71.17678 23193 ft 483 kts 357°
2026-04-25 22:53 -31.17635 -71.17472 22682 ft 479 kts 357°
2026-04-25 22:53 -31.14323 -71.17272 22143 ft 474 kts 357°
2026-04-25 22:54 -31.11047 -71.17078 21607 ft 469 kts 357°
2026-04-25 22:54 -31.07799 -71.16884 21077 ft 465 kts 357°
2026-04-25 22:54 -31.04587 -71.16690 20539 ft 459 kts 358°
2026-04-25 22:54 -31.01417 -71.16502 19980 ft 455 kts 358°
2026-04-25 22:55 -30.98270 -71.16316 19393 ft 451 kts 358°
2026-04-25 22:55 -30.95156 -71.16131 18877 ft 446 kts 358°
2026-04-25 22:55 -30.92071 -71.15945 18340 ft 441 kts 358°
2026-04-25 22:55 -30.89026 -71.15760 17766 ft 436 kts 359°
2026-04-25 22:56 -30.86006 -71.15578 17253 ft 432 kts 359°
2026-04-25 22:56 -30.83046 -71.15403 16739 ft 428 kts 359°
2026-04-25 22:56 -30.80084 -71.15229 16231 ft 424 kts 359°
2026-04-25 22:56 -30.77148 -71.15056 15726 ft 420 kts
2026-04-25 22:57 -30.74239 -71.14884 15216 ft 416 kts
2026-04-25 22:57 -30.71358 -71.14712 14729 ft 413 kts
2026-04-25 22:57 -30.68499 -71.14540 14229 ft 409 kts
2026-04-25 22:57 -30.65663 -71.14370 13736 ft 405 kts
2026-04-25 22:58 -30.62867 -71.14206 13233 ft 402 kts
2026-04-25 22:58 -30.60080 -71.14042 12746 ft 399 kts
2026-04-25 22:58 -30.57311 -71.13876 12279 ft 396 kts
2026-04-25 22:58 -30.54601 -71.13713 11815 ft 393 kts
2026-04-25 22:59 -30.51852 -71.13546 11432 ft 385 kts
2026-04-25 22:59 -30.49266 -71.13388 11316 ft 370 kts
2026-04-25 22:59 -30.46749 -71.13237 11167 ft 356 kts
2026-04-25 22:59 -30.44329 -71.13095 11024 ft 339 kts
2026-04-25 23:00 -30.42047 -71.12960 10884 ft 319 kts
2026-04-25 23:00 -30.39888 -71.12830 10676 ft 302 kts
2026-04-25 23:00 -30.37816 -71.12706 10236 ft 296 kts
2026-04-25 23:00 -30.35770 -71.12588 9696 ft 293 kts
2026-04-25 23:01 -30.33743 -71.12470 9178 ft 289 kts
2026-04-25 23:01 -30.31746 -71.12351 8991 ft 288 kts
2026-04-25 23:01 -30.29722 -71.12233 8530 ft 291 kts
2026-04-25 23:01 -30.27812 -71.12122 8207 ft 288 kts
2026-04-25 23:02 -30.25819 -71.12003 7884 ft 286 kts
2026-04-25 23:02 -30.23841 -71.11883 7566 ft 285 kts
2026-04-25 23:02 -30.21868 -71.11735 7250 ft 284 kts
2026-04-25 23:02 -30.19916 -71.11568 6942 ft 284 kts
2026-04-25 23:03 -30.17960 -71.11393 6634 ft 280 kts
2026-04-25 23:03 -30.16042 -71.11221 6304 ft 270 kts
2026-04-25 23:03 -30.14221 -71.11060 6030 ft 258 kts
2026-04-25 23:03 -30.12454 -71.10811 5737 ft 254 kts 15°
2026-04-25 23:04 -30.10839 -71.10046 5462 ft 249 kts 32°
2026-04-25 23:04 -30.09863 -71.09354 5282 ft 248 kts 32°
2026-04-25 23:04 -30.07921 -71.07994 4930 ft 236 kts 32°
2026-04-25 23:04 -30.06545 -71.07037 4643 ft 226 kts 32°
2026-04-25 23:05 -30.05207 -71.06108 4404 ft 222 kts 32°
2026-04-25 23:05 -30.03883 -71.05222 4137 ft 215 kts 26°
2026-04-25 23:05 -30.02487 -71.04709 3844 ft 207 kts 10°
2026-04-25 23:05 -30.01076 -71.04647 3586 ft 199 kts 355°
2026-04-25 23:06 -29.99753 -71.04982 3354 ft 191 kts 340°
2026-04-25 23:06 -29.98591 -71.05649 3104 ft 181 kts 325°
2026-04-25 23:06 -29.97664 -71.06543 2888 ft 167 kts 313°
2026-04-25 23:06 -29.96988 -71.07552 2671 ft 155 kts 301°
2026-04-25 23:07 -29.96503 -71.08633 2466 ft 150 kts 295°
2026-04-25 23:07 -29.96052 -71.09687 2279 ft 147 kts 295°
2026-04-25 23:07 -29.95603 -71.10738 2073 ft 145 kts 295°
2026-04-25 23:07 -29.95158 -71.11777 1871 ft 143 kts 295°
2026-04-25 23:08 -29.94717 -71.12805 1692 ft 143 kts 295°
2026-04-25 23:08 -29.94280 -71.13823 1501 ft 141 kts 295°
2026-04-25 23:08 -29.93845 -71.14834 1325 ft 140 kts 295°
2026-04-25 23:08 -29.93412 -71.15842 1135 ft 141 kts 295°
2026-04-25 23:09 -29.92973 -71.16853 941 ft 141 kts 295°
2026-04-25 23:09 -29.92532 -71.17867 753 ft 141 kts 295°
2026-04-25 23:09 -29.92099 -71.18881 567 ft 141 kts 295°
2026-04-25 23:09 -29.91698 -71.19831 470 ft 102 kts 296°
2026-04-25 23:10 -29.91522 -71.20235 478 ft 6 kts 292°
2026-04-25 23:10 -29.91537 -71.20265 476 ft 4 kts 220°
2026-04-25 23:10 -29.91568 -71.20285 481 ft 8 kts 208°
2026-04-25 23:10 -29.91626 -71.20289 477 ft 7 kts 133°
2026-04-25 23:11 -29.91647 -71.20247 477 ft 4 kts 118°
2026-04-25 23:11 -29.91680 -71.20240 476 ft 7 kts 198°
2026-04-25 23:11 -29.91693 -71.20248 478 ft 2 kts 207°
2026-04-25 23:11 -29.91699 -71.20251 479 ft 0 kts 206°